[[{"header":{"parameterUnit":"m.s-1","parameterCategory":1,"la1":30.2991,"la2":30.254,"lo1":-89.0895,"lo2":-89.0444,"dy":0.0017,"dx":0.0017,"nx":28,"ny":28,"refTime":"2024-05-25T21:00:00:Z","depth":0,"parameterNumber":2,"parameterNumberName":"U-component_of_WINDS"},"data":[0,0,0,0,0,0,0,0,0,0,0,0,0,0,0,0,0,0,0,0,0,0,0,0,0,0,0,0,0,0,0,0,0,0,0,0,0,0,0,0,0,0,0,0,0,0,0,0,0,0,0,0,0,0,0,0,0,0,1.4964,1.4963,0,1.4936,1.4936,1.4935,1.4884,1.4883,1.4882,1.4881,1.4853,1.4853,1.4853,0,0,0,0,0,0,0,0,0,0,0,0,0,1.4973,1.4973,1.4964,1.4963,1.4963,1.4936,1.4936,1.4935,1.4884,1.4883,1.4881,1.488,1.4853,1.4853,1.4853,0,0,0,0,0,0,0,0,0,0,0,0,0,1.4959,1.4973,1.4964,1.4934,1.4931,1.4936,1.4935,1.4935,1.4884,1.4883,1.4881,1.488,1.4853,1.4853,1.4853,1.4885,0,0,1.4854,1.4854,0,0,0,0,0,0,0,0,1.496,1.4959,1.4939,1.4936,1.4933,1.4912,1.4928,1.4918,1.4884,1.4902,1.4881,1.4879,1.4874,1.4872,1.487,1.4884,1.4883,1.4854,1.4855,1.4855,1.4855,0,0,0,0,0,0,0,1.4961,1.496,1.4953,1.4939,1.4935,1.4922,1.4919,1.4926,1.4897,1.49,1.4897,1.4894,1.4872,1.487,1.4869,1.4882,1.4854,1.4855,1.4855,1.4855,1.4918,1.492,0,0,0,0,0,0,1.4966,1.4961,1.4954,1.4952,1.4943,1.4923,1.4919,1.492,1.4896,1.4891,1.4895,1.4892,1.487,1.4869,1.4868,1.4902,1.4855,1.4855,1.4855,1.4917,1.4919,1.492,0,0,0,0,0,0,1.4967,1.4966,1.4955,1.4955,1.4953,1.4925,1.4926,1.492,1.4918,1.4892,1.4887,1.4899,1.4869,1.4868,1.4881,1.49,1.4855,1.4855,1.4915,1.4917,1.492,1.4971,0,0,0,0,0,0,1.4967,1.4967,1.4978,1.4956,1.4953,1.4968,1.4927,1.4921,1.4919,1.4914,1.4894,1.489,1.4868,1.4881,1.4881,1.49,1.4856,1.4913,1.4916,1.4919,1.4968,1.4975,1.4982,0,0,0,0,0,1.4968,1.4995,1.4979,1.4979,1.4967,1.4969,1.4968,1.4942,1.4921,1.4932,1.4915,1.489,1.4899,1.4882,1.4882,1.4902,1.4912,1.4915,1.4919,1.4965,1.4974,1.4981,0,0,0,0,0,0,1.5021,1.4991,1.4974,1.4994,1.4985,1.4961,1.4974,1.4952,1.4948,1.4944,1.4912,1.4908,1.4925,1.4915,1.4897,1.493,1.4901,1.4905,1.4936,1.4945,1.4951,1.4953,1.4856,0,0,0,0,0,1.5035,1.5039,1.5013,1.5034,1.503,1.5003,1.5003,1.4983,1.4972,1.4968,1.4952,1.4942,1.4942,1.4943,1.4942,1.4966,1.4961,1.498,1.4987,1.4992,1.4996,1.5006,1.5014,1.4932,1.4932,1.4932,0,0,1.5064,1.5048,1.5053,1.5044,1.5034,1.5038,1.5,1.5007,1.5009,1.4969,1.498,1.4968,1.4955,1.4973,1.4981,1.4965,1.5017,1.4997,1.5002,1.5001,1.5011,1.5018,1.5025,1.4934,1.4933,1.4933,0,0,1.5119,1.5108,1.5123,1.5114,1.5099,1.5081,1.5085,1.5064,1.5054,1.5064,1.5034,1.5037,1.5038,1.503,1.5025,1.5076,1.5053,1.5077,1.5112,1.5123,1.513,1.5135,1.5152,1.5158,1.508,1.508,1.5081,0,1.5157,1.5162,1.5134,1.5142,1.5138,1.5102,1.5116,1.5109,1.5095,1.5093,1.5076,1.5076,1.5065,1.508,1.5092,1.5091,1.5093,1.5078,1.5131,1.5136,1.5141,1.5156,1.5163,1.5083,1.5083,1.5083,1.5082,0,1.5209,1.5213,1.5227,1.5213,1.5212,1.5223,1.5196,1.5198,1.5179,1.5163,1.5173,1.5158,1.5152,1.5155,1.5137,1.5167,1.5158,1.5137,1.5106,1.5152,1.5166,1.5172,1.5088,1.5087,1.5086,1.5085,0,0,1.5296,1.5266,1.5272,1.5264,1.5245,1.5248,1.5258,1.5251,1.5253,1.5244,1.5251,1.5252,1.5232,1.5227,1.5208,1.5218,1.5257,1.5195,1.5194,1.5205,1.5288,1.5303,1.531,1.5242,1.5243,1.5243,1.5288,0,1.5346,1.536,1.5334,1.5354,1.5357,1.5322,1.533,1.5319,1.5304,1.5305,1.5288,1.5289,1.5263,1.5259,1.5268,1.525,1.5273,1.5247,1.5247,1.5247,1.525,1.5318,1.5334,1.5377,1.5294,1.5295,1.5296,0,1.5405,1.5399,1.5419,1.5397,1.5398,1.5405,1.5397,1.5398,1.5385,1.5373,1.5367,1.5344,1.5351,1.5323,1.5333,1.5316,1.5314,1.5306,1.5307,1.5304,1.5273,1.5316,1.5391,1.5397,1.5304,1.5303,1.5303,0,1.5465,1.5461,1.5472,1.5468,1.5443,1.5449,1.5439,1.5424,1.5422,1.5415,1.5413,1.5407,1.5404,1.54,1.5376,1.5358,1.5388,1.5358,1.5377,1.5378,1.5384,1.5384,1.5458,1.5386,1.5386,1.5386,1.5386,0,1.5522,1.5535,1.5499,1.5505,1.5519,1.549,1.5504,1.5491,1.5478,1.5481,1.5451,1.5455,1.5423,1.5423,1.5404,1.5414,1.5413,1.5403,1.5398,1.5405,1.5406,1.5403,1.5399,1.5387,1.5387,1.5387,1.5386,0,1.559,1.5566,1.5576,1.5551,1.5546,1.5557,1.5536,1.5541,1.5524,1.5528,1.5528,1.5501,1.55,1.5475,1.5469,1.5456,1.5473,1.5463,1.5477,1.5473,1.5494,1.5492,1.5567,1.5575,1.55,1.55,1.5501,0,1.5627,1.5636,1.5613,1.5613,1.5604,1.5604,1.5601,1.5573,1.5571,1.5556,1.5563,1.5559,1.5554,1.5553,1.5533,1.5528,1.5517,1.5543,1.5516,1.5522,1.5515,1.5514,1.5514,1.5549,1.555,1.5551,1.5551,0,1.5695,1.5683,1.568,1.5672,1.5669,1.5662,1.5653,1.5655,1.5623,1.5623,1.5621,1.5617,1.561,1.5606,1.5597,1.5587,1.5564,1.556,1.5564,1.5571,1.5578,1.5573,1.5492,1.5559,1.5558,1.5557,1.5557,1.5557,1.5748,1.5754,1.5738,1.5735,1.5725,1.5717,1.572,1.5703,1.5701,1.5692,1.5676,1.5676,1.5662,1.5647,1.5639,1.5638,1.5624,1.5631,1.5632,1.5634,1.5637,1.558,1.5637,1.5637,1.5636,1.5636,1.5636,0,1.5813,1.58,1.5798,1.5786,1.5784,1.5762,1.5751,1.575,1.575,1.5739,1.5735,1.5732,1.5728,1.5707,1.5701,1.5704,1.5693,1.5703,1.5702,1.57,1.565,1.5647,1.5712,1.5712,1.5712,1.5712,1.5712,1.5712,1.5846,1.5854,1.584,1.5843,1.5831,1.583,1.5825,1.5818,1.5808,1.5806,1.5802,1.5789,1.5773,1.5766,1.5761,1.5755,1.5753,1.5767,1.5757,1.5711,1.5704,1.5696,1.5693,1.5767,1.5767,1.5806,1.5807,1.5807]},{"header":{"parameterUnit":"m.s-1","parameterCategory":1,"la1":30.2991,"la2":30.254,"lo1":-89.0895,"lo2":-89.0444,"dy":0.0017,"dx":0.0017,"nx":28,"ny":28,"refTime":"2024-05-25T21:00:00:Z","depth":0,"parameterNumber":3,"parameterNumberName":"V-component_of_WINDS"},"data":[0,0,0,0,0,0,0,0,0,0,0,0,0,0,0,0,0,0,0,0,0,0,0,0,0,0,0,0,0,0,0,0,0,0,0,0,0,0,0,0,0,0,0,0,0,0,0,0,0,0,0,0,0,0,0,0,0,0,6.3652,6.3653,0,6.375,6.3751,6.3752,6.3703,6.37,6.3697,6.3695,6.3792,6.3797,6.3802,0,0,0,0,0,0,0,0,0,0,0,0,0,6.3419,6.3424,6.3652,6.3653,6.3654,6.375,6.3751,6.3752,6.3703,6.37,6.3697,6.3694,6.379,6.3796,6.3802,0,0,0,0,0,0,0,0,0,0,0,0,0,6.3519,6.3425,6.3652,6.3641,6.3641,6.3749,6.3751,6.3753,6.3704,6.37,6.3696,6.3692,6.3788,6.3795,6.3803,6.3926,0,0,6.3826,6.3829,0,0,0,0,0,0,0,0,6.3513,6.3528,6.3642,6.3642,6.3642,6.371,6.3704,6.381,6.3705,6.368,6.3695,6.3691,6.3767,6.3776,6.3803,6.393,6.3934,6.3826,6.3831,6.3834,6.3836,0,0,0,0,0,0,0,6.3507,6.3523,6.369,6.3643,6.3644,6.3631,6.3641,6.3724,6.3744,6.3682,6.3678,6.3691,6.3767,6.3796,6.3805,6.3936,6.3826,6.3833,6.3837,6.384,6.4168,6.4172,0,0,0,0,0,0,6.3501,6.3518,6.3687,6.3693,6.3567,6.3638,6.3649,6.3692,6.3743,6.3747,6.3694,6.3688,6.3785,6.3796,6.3808,6.3955,6.3834,6.3841,6.3845,6.4164,6.4169,6.4174,0,0,0,0,0,0,6.3496,6.3516,6.3683,6.3605,6.3625,6.3646,6.3695,6.3696,6.3725,6.3752,6.3755,6.372,6.3783,6.3798,6.3897,6.3958,6.3844,6.3851,6.4159,6.4166,6.4172,6.425,0,0,0,0,0,0,6.3489,6.3515,6.3562,6.3606,6.3629,6.3772,6.3699,6.3701,6.3739,6.3732,6.3778,6.3781,6.3781,6.3886,6.3904,6.3966,6.3857,6.4154,6.4162,6.417,6.4242,6.4259,6.4273,0,0,0,0,0,6.3481,6.358,6.3565,6.3586,6.3689,6.3775,6.3788,6.3787,6.3744,6.3791,6.3809,6.378,6.3949,6.3897,6.3917,6.3982,6.415,6.416,6.4169,6.4236,6.4255,6.4272,0,0,0,0,0,0,6.3541,6.3585,6.3569,6.3685,6.3727,6.3767,6.3826,6.3808,6.3861,6.3853,6.3847,6.3858,6.3961,6.3981,6.3923,6.4103,6.4042,6.4056,6.4086,6.4105,6.412,6.4113,6.3863,0,0,0,0,0,6.3568,6.3635,6.367,6.3768,6.379,6.3805,6.3842,6.3838,6.388,6.3897,6.3922,6.3963,6.4026,6.4067,6.4125,6.4245,6.4254,6.43,6.4315,6.4327,6.4339,6.4404,6.4425,6.4205,6.4205,6.4205,0,0,6.3623,6.3656,6.3698,6.3781,6.3813,6.3882,6.382,6.3895,6.3946,6.3908,6.4004,6.4024,6.4069,6.418,6.423,6.42,6.4402,6.4339,6.4349,6.4354,6.4416,6.4437,6.4455,6.4212,6.4211,6.421,0,0,6.376,6.3792,6.3878,6.3911,6.3961,6.397,6.3991,6.4034,6.4046,6.4143,6.4116,6.4175,6.4283,6.4317,6.4348,6.4499,6.4475,6.4518,6.4597,6.466,6.4677,6.4693,6.4746,6.4766,6.453,6.453,6.4531,0,6.3823,6.3926,6.3924,6.4002,6.4039,6.4009,6.4096,6.4128,6.4194,6.422,6.4186,6.4321,6.435,6.4467,6.4505,6.4531,6.4554,6.4512,6.4675,6.4691,6.4705,6.4756,6.4776,6.4535,6.4535,6.4534,6.4534,0,6.4001,6.4073,6.4136,6.4202,6.4246,6.4328,6.4337,6.4382,6.4374,6.4387,6.4485,6.4519,6.4584,6.4612,6.4604,6.4729,6.4709,6.4676,6.4614,6.4731,6.4779,6.4798,6.4542,6.4541,6.4539,6.4538,0,0,6.4177,6.4241,6.4264,6.4294,6.4347,6.4402,6.4483,6.4548,6.4586,6.4633,6.47,6.4792,6.4762,6.4797,6.4793,6.4849,6.4966,6.4808,6.4809,6.4836,6.5106,6.5131,6.5153,6.4951,6.4955,6.4958,6.5102,0,6.4316,6.4458,6.4459,6.4589,6.4656,6.4629,6.4699,6.4739,6.4753,6.4811,6.4826,6.4892,6.4847,6.4868,6.4923,6.4941,6.502,6.493,6.5012,6.5015,6.5001,6.5178,6.5205,6.5339,6.5121,6.5124,6.5126,0,6.4498,6.4553,6.469,6.4734,6.4762,6.4825,6.4885,6.4941,6.4985,6.4992,6.5032,6.502,6.5101,6.5038,6.515,6.5088,6.5122,6.5136,6.5141,6.5148,6.5077,6.519,6.5382,6.5402,6.5156,6.5153,6.5151,0,6.4613,6.472,6.4816,6.4842,6.4896,6.4941,6.4965,6.5006,6.5045,6.5097,6.5123,6.5183,6.5217,6.5264,6.5268,6.5221,6.538,6.5317,6.5387,6.5387,6.5421,6.5418,6.5621,6.5444,6.5443,6.5443,6.5443,0,6.4768,6.4853,6.4868,6.4927,6.5021,6.5021,6.5114,6.5134,6.5171,6.5233,6.5214,6.5272,6.5274,6.5334,6.5337,6.5429,6.5444,6.5451,6.5451,6.5453,6.5452,6.5474,6.5465,6.5448,6.5447,6.5446,6.5445,0,6.4911,6.4924,6.5027,6.5071,6.5083,6.5151,6.5187,6.5243,6.5256,6.5335,6.5353,6.5374,6.5443,6.5452,6.5532,6.5535,6.5645,6.5635,6.5631,6.5629,6.5698,6.5691,6.5922,6.5952,6.5755,6.5757,6.5759,0,6.5009,6.5074,6.5125,6.5166,6.5193,6.5259,6.5299,6.5302,6.5344,6.5401,6.545,6.5518,6.5572,6.5684,6.5705,6.5767,6.5758,6.5834,6.5767,6.5767,6.5759,6.5755,6.5761,6.5847,6.5849,6.5851,6.5852,0,6.5182,6.5186,6.5246,6.5308,6.5357,6.5406,6.5452,6.5487,6.5495,6.5544,6.5616,6.5658,6.5741,6.5808,6.587,6.5894,6.5875,6.5874,6.5893,6.5895,6.589,6.5893,6.5666,6.5868,6.5867,6.5865,6.5865,6.5864,6.5305,6.5362,6.5407,6.5474,6.5509,6.5553,6.5608,6.5629,6.5689,6.5757,6.5755,6.5834,6.5877,6.5958,6.5986,6.6047,6.6022,6.605,6.6057,6.6064,6.6071,6.5881,6.6058,6.6058,6.6057,6.6057,6.6057,0,6.5477,6.5505,6.5567,6.5633,6.5686,6.5665,6.5715,6.576,6.583,6.5872,6.5927,6.6009,6.6075,6.6102,6.6166,6.621,6.6203,6.6226,6.6223,6.6229,6.609,6.6066,6.6231,6.6231,6.6231,6.6231,6.6231,6.6231,6.5572,6.5667,6.5676,6.5788,6.5815,6.5893,6.5923,6.5964,6.5998,6.6091,6.6146,6.6163,6.62,6.6267,6.6326,6.6332,6.6357,6.6384,6.6387,6.6256,6.6238,6.6221,6.62,6.639,6.639,6.6521,6.6522,6.6523]}]]